User: anonymous   Login
Location: Cormont
(50.5693°N, 1.7416°E)
Time: 23:59:39
(UTC+00:00)
Language:

STARLINK-25 - Orbit

View from above orbital plane
View from above orbital plane
View from above satellite
View from above satellite

Ground track
Ground track

The orbit data is extracted from the following two-line orbital elements,

1 44239U 19029E   19348.91667824  .00238778  00000-0  13281-1 0  9992
2 44239  53.0067 332.3729 0001736  55.2319 105.3651 15.12082804 30944
Epoch (UTC): 14 December 2019 22:00:01
Eccentricity: 0.0001736
inclination: 53.0067°
perigee height: 528 km
apogee height: 531 km
right ascension of ascending node: 332.3729°
argument of perigee: 55.2319°
revolutions per day: 15.12082804
mean anomaly at epoch: 105.3651°
orbit number at epoch: 3094

The dashed part of the orbit path shows where the satellite is in the earth's shadow,  

DLR